Regional Weather Roundup
Issued by NWS

Home | Current Version | Previous Version | Text Only | Print | Product List | Glossary On
Versions: 1 2 3 4 5 6 7 8 9 10 11 12 13 14 15 16 17 18 19 20 21 22 23 24 25 26 27
000
ASUS45 KBOU 200406
RWRCO

WEATHER ROUNDUP FOR COLORADO
NATIONAL WEATHER SERVICE DENVER/BOULDER CO
1000 PM MDT SAT APR 19 2014

NOTE: "FAIR" INDICATES FEW OR NO CLOUDS BELOW 12000 FEET WITH NO
SIGNIFICANT WEATHER AND/OR OBSTRUCTIONS TO VISIBILITY.

COZ001>005-013-030-031-200500-
...NORTHWEST COLORADO...

CITY           SKY/WX    TMP DP  RH WIND       PRES   REMARKS
CRAIG          CLOUDY    45  37  73 CALM      30.12R
HAYDEN         PTCLDY    46  36  66 W3        30.15R
MEEKER         MOCLDY    48  40  73 E9        30.15R
MOUNT WERNER   PTCLDY    37  30  75 SE7       30.30R
STEAMBOAT SPGS MOCLDY    47  32  55 E6        30.14R
WALDEN         PTCLDY    36  32  87 CALM      30.17S
$$

COZ006>008-011-200500-
...WEST CENTRAL VALLEYS...

CITY           SKY/WX    TMP DP  RH WIND       PRES   REMARKS
GRAND JUNCTION PTCLDY    51  43  74 NE3       30.07R
MONTROSE       PTCLDY    51  46  83 SE6       30.13R
EAGLE          CLOUDY    52  39  62 CALM      30.16R
RIFLE          PTCLDY    54  39  57 E5        30.10R
DELTA          MOCLDY    54  43  65 NE3       30.09S
NUCLA            N/A     54  41  62 N6        30.16R
$$

COZ017>023-064>068-200500-
...SOUTHWEST COLORADO...

CITY           SKY/WX    TMP DP  RH WIND       PRES   REMARKS
DURANGO        CLOUDY    50  35  56 CALM      30.11R
CORTEZ         CLEAR     49  32  52 E6        30.10R
PAGOSA SPRINGS CLOUDY    46  35  65 CALM      30.16S
TELLURIDE      CLOUDY    43  34  70 SE6       30.24S
WOLF CREEK PAS CLOUDY    30  28  93 SW13      30.32S WCI  20
$$

COZ009-010-012-014-032>034-037-058>063-200500-
...CENTRAL COLORADO...

CITY           SKY/WX    TMP DP  RH WIND       PRES   REMARKS
ASPEN          MOCLDY    45  34  65 S6        30.17R
BUENA VISTA    MOCLDY    44  38  78 W8        30.19R
COPPER MTN     FOG       34  30  86 S10       30.33S VSB<1/4 WCI  26
BERTHOUD PASS  CLOUDY    28  18  64 W10       30.36S WCI  19
COTTONWOOD PAS CLOUDY    41  36  81 CALM      30.26R
GUNNISON       CLOUDY    48  32  53 CALM      30.21R
KREMMLING      CLOUDY    43  36  75 CALM      30.19R
LEADVILLE      CLOUDY    34  32  92 NE3       30.26R
MONARCH PASS   CLOUDY    32  30  93 W16       30.43R WCI  21
SALIDA         MOCLDY    49  38  65 E3        30.25R
SUNLIGHT       MOCLDY    36  34  93 CALM      30.31R
WILKERSON PASS LGT SNOW  32  32 100 CALM      30.33S
$$

COZ069>075-200500-
...SAN LUIS VALLEY/SANGRE DE CRISTO MOUNTAINS...

CITY           SKY/WX    TMP DP  RH WIND       PRES   REMARKS
ALAMOSA        CLOUDY    49  36  61 S7        30.12R
LA VETA PASS   CLOUDY    39  32  75 CALM      30.27R
SAGUACHE       CLOUDY    48  36  61 NW21      30.16R
$$

COZ035-036-038>040-200500-
...NORTHERN COLORADO FRONT RANGE...

CITY           SKY/WX    TMP DP  RH WIND       PRES   REMARKS
DENVER INTL AP CLOUDY    52  47  83 W9        30.12R
DMNS CITY PARK   N/A     53  45  72 W8        30.12S
AURORA         MOCLDY    50  48  93 SW6       30.13R
FRONT RANGE AP NOT AVBL
ERIE MUNI ARPT LGT RAIN  52  49  89 CALM      30.11S
BOULDER MUN AP RAIN      52  48  87 W6        30.12R
CENTENNIAL     CLOUDY    50  45  83 NW3       30.13R
BROOMFIELD     NOT AVBL
FORT COLLINS   MOCLDY    50  43  76 S9        30.11S
LONGMONT       DRIZZLE   54  48  81 SW6       30.13R
$$

COZ041-046-047-076>085-087-088-200500-
...PIKES PEAK/PALMER DIVIDE AND SOUTHERN FOOTHILLS...

CITY           SKY/WX    TMP DP  RH WIND       PRES   REMARKS
COLO. SPRINGS  MOCLDY    51  41  68 N12       30.13R
A. F. ACADEMY  MOCLDY    47  43  86 NW6       30.15R
ELLICOTT       NOT AVBL
FALCON         CLOUDY    48  39  69 N10       30.16S
FORT CARSON    CLOUDY    53  43  70 NW12      30.11R
LIMON          MOCLDY    49  38  65 E6        30.10R
MONUMENT HILL  PTCLDY    41  39  93 W7        30.16S
TRINIDAD       CLOUDY    56  39  53 W15       30.03R
$$

COZ042>045-048>051-090-091-200500-
...NORTHEAST COLORADO...

CITY           SKY/WX    TMP DP  RH WIND       PRES   REMARKS
GREELEY ARPT   CLOUDY    54  45  71 W7        30.09S
AKRON          PTCLDY    49  39  68 SE8       30.06R
BURLINGTON     MOCLDY    54  46  74 E10       30.03S
WRAY           CLOUDY    54  43  66 E8        30.04R
STERLING       PTCLDY    50  39  66 N5        30.04R
HOLYOKE        PTCLDY    52  39  62 SE5       30.03S
FORT MORGAN    PTCLDY    49  37  62 N5        30.07R
$$

COZ086-089-092>099-200500-
...SOUTHEAST COLORADO...

CITY           SKY/WX    TMP DP  RH WIND       PRES   REMARKS
PUEBLO         CLOUDY    61  37  41 N12       30.04R
LA JUNTA       CLOUDY    63  45  51 NE20      29.94R
LAMAR          CLOUDY    63  43  48 S14       29.93R
SPRINGFIELD      N/A     57  45  64 S12       30.01R
$$



USA.gov is the U.S. government's official web portal to all federal, state and local government web resources and services.